Home   Weather   Roanoke   Past weeks
Flag for USA

Past Weather in Roanoke, Virginia, USA — Yesterday and Last 2 Weeks

Now
47 °F

Partly sunny.


Feels Like: 39 °F
Forecast: 56 / 43 °F
Wind: 22 mph from Northwest

Location: Roanoke Regional Airport

Current Time: Mar 22, 2019 at 6:54:37 pm

Latest Report: Mar 22, 2019 at 5:54 pm


Visibility: 10 mi

Pressure: 29.85 "Hg

Humidity: 52%

Dew Point: 30 °F

Location of RoanokeLocation

Past Weather in Roanoke — Graph

°F

Roanoke Temperature Yesterday

Maximum temperature yesterday: 56 °F (at 3:54 pm)
Minimum temperature yesterday: 41 °F (at 6:02 am)
Average temperature yesterday: 48 °F

High & Low Weather Summary for the Past Weeks

 TemperatureHumidityPressure
High73 °F (Mar 15, 5:54 pm)97% (Mar 9, 9:54 pm)30.49 "Hg (Mar 9, 9:54 pm)
Low27 °F (Mar 19, 6:54 am)15% (Mar 11, 4:54 pm)29.73 "Hg (Mar 21, 4:54 pm)
Average47 °F51%30.16 "Hg
* Reported Mar 7 3:54 pm — Mar 22 4:54 pm, Roanoke. Weather by CustomWeather, © 2019

Note: Actual official high and low records may vary slightly from our data, if they occured in-between our weather recording intervals... More about our weather records

Advertising

Roanoke Weather History for the Previous 24 Hours

Scroll right to see more
 ConditionsComfort  
Time TempWeatherWind HumidityBarometerVisibility
4:54 pm
Fri, Mar 22
52 °FPartly sunny.37 mph41%29.78 "Hg10 mi
3:54 pm53 °FBroken clouds.29 mph35%29.74 "Hg10 mi
2:54 pm52 °FPartly sunny.17 mph37%29.77 "Hg10 mi
1:54 pm54 °FScattered clouds.18 mph37%29.75 "Hg10 mi
12:54 pm52 °FPartly sunny.18 mph41%29.77 "Hg10 mi
11:54 am49 °FPartly sunny.22 mph43%29.78 "Hg10 mi
10:54 am46 °FPartly sunny.22 mph46%29.81 "Hg10 mi
9:54 am45 °FPartly sunny.17 mph51%29.81 "Hg10 mi
8:54 am45 °FPartly sunny.21 mph56%29.79 "Hg10 mi
7:54 am45 °FMostly cloudy.23 mph51%29.77 "Hg10 mi
6:54 am46 °FOvercast.21 mph51%29.75 "Hg10 mi
5:54 am46 °FMostly cloudy.23 mph56%29.75 "Hg10 mi
4:54 am47 °FMostly cloudy.22 mph54%29.74 "Hg10 mi
3:54 am46 °FPassing clouds.15 mph66%29.75 "Hg10 mi
2:54 am47 °FLight rain. Mostly cloudy.18 mph64%29.75 "Hg10 mi
1:54 am48 °FMostly cloudy.23 mph59%29.75 "Hg10 mi
12:54 am48 °FMostly cloudy.17 mph59%29.76 "Hg10 mi
11:54 pm
Thu, Mar 21
49 °FMostly cloudy.18 mph57%29.76 "Hg10 mi
10:54 pm49 °FOvercast.12 mph59%29.76 "Hg10 mi
9:54 pm49 °FPassing clouds.15 mph59%29.77 "Hg10 mi
8:54 pm50 °FPassing clouds.13 mph54%29.77 "Hg10 mi
6:54 pm52 °FPartly sunny.20 mph53%29.75 "Hg10 mi
Weather by CustomWeather, © 2019

See weather overview